Regional Weather Roundup
Issued by NWS Goodland, KS

Home | Current Version | Previous Version | Graphics & Text | Print | Product List | Glossary On
Versions: 1 2 3 4 5 6 7 8 9 10 11 12 13 14 15 16 17 18 19 20 21 22 23 24 25 26 27 28 29 30 31 32 33 34 35 36 37 38 39 40 41 42 43 44 45 46 47 48 49 50
000
ASUS43 KGLD 240408
RWRGLD

GOODLAND FORECAST AREA HOURLY WEATHER ROUNDUP
NATIONAL WEATHER SERVICE GOODLAND KS
900 PM MST THU FEB 23 2017

...OFFICIAL OBSERVATIONS...

CITY           SKY/WX    TMP DP  RH WIND       PRES   REMARKS
GOODLAND KS    CLOUDY    25  23  92 NW20      29.76R WCI  11
HILL CITY KS   CLOUDY    32  29  88 N15       29.72R
IMPERIAL NEB   LGT SNOW  24  21  88 N18       29.80R FOG     WCI  10
MCCOOK NEB     MOCLDY    26  24  92 N16       29.76R WCI  14
AKRON CO       CLOUDY    20  16  84 N15       29.82R WCI   6
BURLINGTON CO  CLOUDY    24  20  84 N21G28    29.77R WCI   9
LIMON CO       CLOUDY    18  15  88 NW28G35   29.78R WCI  -1
$$

...UNOFFICIAL OBSERVATIONS...

CITY           SKY/WX    TMP DP  RH WIND       PRES   REMARKS
LENORA KS        N/A     30  32 100 N12         N/A
NORTON KS      CLOUDY    28  25  86 NW16G24   29.72  WCI  17
SHARON SPRINGS   N/A     26  22  84 NW24G37     N/A  WCI  11
TRENTON NEB      N/A     25  32 100 CALM        N/A
KIT CARSON CO    N/A     24  18  77 MISG        N/A
YUMA CO        CLOUDY    21  19  93 NW6       29.82R
$$



USA.gov is the U.S. government's official web portal to all federal, state and local government web resources and services.